Simultaneous Nadir Overpasses (SNOs) Predictions

Prediction of SNOs between METOP-B and TERRA Satellite Orbit:

Table of predicted SNOs for the next 14.0 days since TLE Epoch: 11/23/2024
Index Date (METOP-B) Time (METOP-B) Lat,Lon (METOP-B) SZA (METOP-B ) Date (TERRA) Time (TERRA) Lat,Lon (TERRA) SZA (TERRA ) Distance(km) Time Diff (sec)
1 11/24/2024 10:18:47 -79.49,-141.43 79.47 11/24/2024 10:18:55 -79.50,-141.32 79.46 2.42 8
2 11/24/2024 11:09:18 79.79, 28.39 100.95 11/24/2024 11:08:08 79.78, 28.28 100.93 2.22 70
3 11/26/2024 23:58:11 79.38,-167.14 100.86 11/26/2024 23:59:10 79.37,-167.26 100.85 2.74 59
4 11/27/2024 00:48:47 -79.56, 1.58 78.90 11/27/2024 00:48:25 -79.56, 1.69 78.89 2.42 22
5 11/29/2024 14:28:11 79.43, -24.24 101.37 11/29/2024 14:28:39 79.43, -24.27 101.37 0.61 28
6 11/29/2024 15:18:44 -79.71, 145.32 78.25 11/29/2024 15:17:52 -79.70, 145.22 78.28 2.17 52
7 12/02/2024 04:08:29 -77.21, -61.62 80.83 12/02/2024 04:09:43 -77.04, -60.79 80.99 28.27 74
8 12/02/2024 04:58:08 79.58, 119.37 101.95 12/02/2024 04:58:05 79.57, 119.22 101.93 3.20 3
9 12/04/2024 18:37:36 -79.34, 92.67 78.03 12/04/2024 18:38:19 -79.34, 92.68 78.02 0.16 43



Historial Predications of SNOs between METOP-B and TERRA
